Location: Colebrook
(42.0017°N, 73.0973°W)
Time: 02:44:38
(UTC-05:00)

CAS-4B - Pass Details

Date: 06 December 2021
Orbit: 529 x 538 km, 43.0° (Epoch: 28 January)

Event Time Altitude Azimuth Distance (km) Brightness Sun altitude
Rises 17:55:05 0° 205° (SSW) 2,670 ? -16.9°
Reaches altitude 10° 17:57:55 10° 185° (S) 1,781 ? -17.4°
Maximum altitude 18:00:35 17° 144° (SE) 1,396 ? -17.9°
Enters shadow 18:00:51 17° 139° (SE) 1,400 ? -18.0°
